GFSGBSN_850_temp_096.txt.gz
Temp
7 7 7 7 7 7 7 7 7 6 7 8 8 8 8 8 8 9 9 10 10 10 11 11 11 10 10 10 13 15 14 14 14 13 13 15 17 17 18 19 20 20 21 21 22 22 22
7 6 4 5 6 6 6 6 5 5 5 7 8 8 8 8 8 9 9 10 10 10 11 11 11 10 9 11 15 13 12 12 13 14 15 15 17 18 18 19 20 20 21 21 21 21 21
7 6 4 3 4 5 5 6 5 4 5 6 7 7 8 8 8 8 9 9 10 10 11 10 10 8 7 12 14 14 13 13 13 14 15 16 16 17 18 18 18 19 19 20 20 20 21
4 4 3 3 3 4 5 5 4 4 4 5 7 7 7 8 7 8 9 10 10 10 10 9 8 5 9 13 12 12 13 13 13 13 13 14 15 16 16 17 18 18 18 17 20 20 21
4 3 3 2 2 3 4 4 4 3 4 5 6 7 7 7 8 9 9 10 10 9 9 9 8 7 11 13 13 13 13 14 14 14 13 13 14 14 15 15 15 17 16 17 18 20 20
4 3 2 2 2 2 3 3 3 3 3 5 6 6 6 7 8 9 9 9 9 9 9 7 7 9 11 14 13 13 12 12 13 13 14 13 14 14 15 15 14 15 16 17 18 19 20
4 3 2 2 2 2 3 2 1 3 4 5 5 6 6 7 7 7 9 9 10 8 8 12 13 12 14 13 12 12 13 13 13 13 13 15 13 13 15 16 16 17 17 17 19 20 20
3 2 2 2 2 1 1 1 2 3 4 5 5 6 6 7 7 6 6 7 6 5 6 9 10 11 11 11 11 13 13 13 14 13 15 14 14 15 16 17 17 17 16 16 18 19 18
3 2 2 2 1 1 0 1 1 2 4 4 5 5 6 6 6 6 6 5 5 4 7 10 12 12 12 11 12 13 14 13 14 13 14 14 15 17 16 16 16 16 16 16 16 17 18
3 2 2 1 1 1 1 0 1 4 3 4 5 5 5 5 5 6 7 5 4 4 7 13 12 12 12 11 12 13 13 13 14 13 14 14 15 15 16 16 16 15 17 17 16 15 14
2 2 1 1 1 1 0 -0 1 3 4 4 4 5 4 5 6 7 5 4 4 5 10 14 13 11 12 12 12 13 14 14 13 13 13 13 14 14 14 16 17 16 17 16 16 15 15
2 1 1 1 1 -0 1 1 2 3 3 3 4 4 4 4 4 4 3 4 4 6 10 13 13 13 12 12 12 12 13 13 13 13 13 13 14 15 15 16 16 16 16 15 15 15 13
1 0 0 0 -0 -2 -1 0 0 1 2 2 3 3 4 3 4 4 5 5 8 9 14 13 11 11 10 10 11 12 12 12 12 10 10 11 12 14 16 14 14 15 13 10 10 12 12
0 0 -0 -0 -1 -2 -2 -1 0 1 2 2 2 3 3 2 3 3 3 7 8 13 12 11 10 9 9 11 11 10 10 10 12 9 7 7 10 13 15 14 11 13 13 11 11 12 14
-0 -0 -1 -1 -1 -2 -1 -2 -0 1 1 1 2 2 2 2 3 2 4 7 10 9 9 8 8 8 9 10 10 9 10 10 11 8 5 6 9 14 15 12 11 12 12 13 12 13 11
-0 -0 -1 -1 -2 -2 -2 -1 -0 0 1 1 2 2 3 3 3 2 6 6 8 9 8 7 6 8 7 8 8 8 9 10 10 7 7 6 5 11 13 12 10 12 14 12 12 10 11
-0 -1 -1 -1 -2 -2 -1 -1 -0 0 1 1 2 4 2 3 2 4 5 8 7 7 7 6 6 6 6 6 6 6 7 9 5 7 7 7 5 8 9 9 11 14 11 12 12 13 10
-1 -1 -1 -2 -2 -2 -1 -1 -0 0 1 1 3 5 2 3 5 7 7 6 6 7 7 7 7 7 6 6 5 6 6 8 8 7 5 6 5 6 8 12 12 16 13 11 11 12 14
-1 -1 -2 -2 -2 -2 -2 -1 -0 0 0 1 4 5 3 2 4 6 7 7 7 7 7 7 7 7 7 6 4 6 7 9 5 5 4 3 6 6 8 10 14 15 15 13 11 13 10
-1 -2 -2 -2 -3 -2 -2 -1 -1 0 1 1 3 3 4 4 3 4 4 6 6 7 7 6 6 7 5 4 6 5 6 8 5 4 4 2 3 4 6 9 13 13 14 12 11 11 11
-2 -2 -2 -2 -2 -2 -2 -1 -1 -0 0 1 2 3 4 4 5 5 4 4 4 4 5 5 5 6 5 4 5 6 5 4 5 4 3 3 4 4 5 6 11 10 10 8 9 11 12
-2 -2 -2 -2 -2 -2 -2 -1 -1 -1 -0 0 1 4 4 4 3 3 4 4 4 4 3 4 3 4 4 3 5 5 5 4 3 5 3 3 6 6 6 9 11 8 7 9 13 12 13
-2 -3 -3 -2 -2 -2 -2 -1 -1 -1 -0 0 2 2 3 4 5 5 5 5 4 3 3 4 3 3 3 3 3 3 3 5 5 5 4 4 4 10 10 13 13 11 12 13 10 9 9
-2 -3 -3 -2 -2 -2 -2 -2 -1 -1 -1 -1 1 2 3 5 7 7 6 6 5 4 1 2 3 3 4 2 2 4 5 6 6 6 7 4 5 11 9 11 8 10 12 11 6 5 5
-2 -2 -2 -2 -2 -2 -2 -2 -2 -1 -1 -1 -0 0 2 3 7 7 6 6 6 4 3 1 3 2 1 1 3 5 5 5 8 9 9 7 9 10 10 9 7 8 8 8 8 3 2
-2 -2 -2 -2 -2 -2 -2 -2 -2 -1 -1 -1 -1 -0 -0 2 4 5 5 5 5 5 6 4 5 4 1 2 3 5 7 7 5 8 10 10 10 11 11 10 8 5 5 7 9 3 1
-2 -2 -3 -3 -3 -2 -2 -2 -2 -2 -1 -1 -1 -1 -1 0 3 3 4 4 4 5 5 6 4 5 5 4 4 5 7 9 5 7 7 8 9 9 8 9 5 2 5 8 6 2 -1
-3 -3 -3 -3 -2 -2 -2 -2 -2 -2 -2 -1 -1 -1 -1 -1 1 2 2 3 4 4 4 4 5 5 4 4 5 5 6 7 7 7 6 5 5 5 7 6 5 -0 4 2 -0 -1 -2
-3 -3 -3 -3 -2 -2 -3 -3 -2 -2 -2 -2 -2 -1 -1 -2 0 2 2 1 1 1 2 3 3 3 3 3 4 4 5 6 5 5 6 3 3 3 3 2 -1 -2 -2 -3 -3 -3 -3

GFSGBSN_850_temp_099.txt.gz
Temp
10 10 9 8 8 7 8 8 8 8 9 9 9 8 8 9 9 9 9 9 10 11 11 11 10 10 10 9 13 15 14 14 14 14 14 13 14 15 14 15 16 16 17 18 19 20 20
10 10 9 8 6 6 6 7 8 8 7 8 8 8 8 8 8 9 9 9 10 10 11 11 10 10 9 7 14 14 14 13 13 13 13 14 15 16 16 16 15 17 18 18 19 19 20
10 9 8 6 5 4 4 4 6 6 7 8 8 8 8 8 8 9 9 9 10 10 10 10 9 9 7 13 14 13 13 13 13 13 13 14 15 14 15 14 17 17 15 16 17 18 17
10 8 7 5 5 4 4 4 5 5 6 7 8 8 8 8 8 9 9 10 10 10 9 9 8 7 8 13 13 14 13 13 13 13 13 13 14 13 14 15 15 14 14 13 16 17 18
9 8 7 5 4 4 3 3 4 4 5 7 6 7 7 7 8 8 9 10 10 9 9 8 8 7 8 12 13 13 13 13 13 14 13 13 13 13 13 11 11 12 11 12 14 16 16
10 8 6 4 4 3 2 2 3 4 5 6 6 6 6 7 8 8 9 10 10 9 8 7 7 6 9 12 13 13 13 13 13 12 12 13 13 10 10 9 9 11 11 12 13 15 16
9 7 6 4 3 3 2 3 3 3 2 3 5 6 6 6 7 7 9 9 9 8 6 9 10 12 13 13 13 12 13 13 13 12 9 12 10 10 9 10 11 12 12 12 14 16 15
9 7 5 4 3 2 2 2 3 3 2 3 5 6 6 7 7 6 6 6 5 5 4 8 10 10 11 11 11 11 12 13 13 10 11 10 9 12 13 13 12 12 12 12 14 15 16
8 6 4 3 3 2 2 2 2 2 3 3 5 5 6 7 6 6 5 5 5 5 4 8 10 11 12 12 11 11 12 13 12 11 11 10 12 14 14 13 13 13 12 13 13 15 14
7 5 4 3 2 2 2 2 1 1 2 4 4 5 5 6 6 6 5 5 5 4 3 11 12 12 12 11 11 12 13 13 12 11 11 11 12 13 12 12 13 12 14 14 14 14 11
5 4 3 2 2 2 1 1 1 1 3 4 4 5 5 5 5 5 4 5 5 5 7 13 12 12 12 12 12 12 12 12 10 11 11 10 11 11 11 12 13 12 14 13 14 14 12
4 4 3 2 2 1 1 1 0 1 3 3 4 4 3 4 4 4 5 6 5 5 7 12 12 12 11 11 10 11 11 11 12 10 11 11 13 11 10 11 12 13 13 12 10 11 10
4 3 2 1 1 1 0 -0 1 1 2 3 3 3 3 3 3 4 5 5 4 5 13 10 9 9 9 9 10 10 10 9 8 7 7 9 9 10 11 10 11 11 11 8 7 9 9
2 2 1 0 0 0 0 1 2 2 2 3 3 3 3 3 3 4 4 4 5 11 8 9 8 8 8 9 9 9 8 7 9 8 5 5 5 8 10 8 8 10 11 7 8 9 10
1 0 -0 0 1 -0 -1 -1 1 1 2 2 2 3 2 3 4 4 4 3 6 8 8 7 7 7 7 7 7 7 6 7 8 7 5 4 6 8 8 9 11 8 8 9 7 10 9
0 -0 -1 -0 -1 -1 -1 -0 0 1 1 2 2 2 3 4 4 3 2 5 8 8 7 7 5 6 5 5 5 5 5 7 7 7 6 5 4 8 10 8 9 10 10 8 7 8 9
-0 -0 -0 -0 -0 -1 -1 0 0 1 1 1 2 3 3 4 3 3 1 5 7 7 7 6 5 5 5 5 5 4 5 6 5 6 6 5 5 6 8 8 8 7 7 8 9 10 9
-0 -1 -1 -1 -1 -2 -2 -1 -0 0 2 2 2 1 3 4 3 4 1 6 6 7 7 7 7 6 5 5 5 4 4 6 8 6 4 3 3 3 6 9 8 9 8 9 7 10 11
-1 -1 -1 -1 -2 -2 -1 -1 -0 1 1 2 3 3 3 3 1 1 6 7 7 7 6 6 5 5 5 4 3 4 4 6 5 4 4 3 3 2 5 9 9 9 10 11 10 8 10
-1 -1 -1 -2 -2 -2 -1 -1 -0 0 1 2 3 1 3 3 4 3 3 5 5 6 5 5 4 5 5 4 4 3 4 5 5 4 5 2 3 3 4 7 7 6 8 11 10 8 8
-1 -1 -2 -2 -2 -2 -1 -1 -0 1 1 2 2 2 3 1 1 2 3 3 3 4 4 4 4 4 3 2 2 3 4 3 4 5 4 2 4 4 4 6 6 6 6 8 8 6 7
-2 -2 -2 -2 -2 -2 -2 -1 -0 1 1 2 2 3 4 3 2 1 2 3 3 4 3 3 2 3 3 2 3 2 2 3 2 3 3 2 4 5 5 6 6 6 7 6 5 5 5
-2 -2 -2 -2 -2 -2 -1 -1 -0 0 1 1 2 3 3 3 3 0 1 3 3 1 3 4 2 2 3 3 2 2 2 2 2 2 2 3 4 5 6 6 7 7 6 5 4 3 5
-2 -2 -2 -2 -2 -2 -1 -1 -0 -0 1 0 1 2 3 0 2 4 6 6 5 3 -1 3 2 2 4 3 3 4 3 2 3 4 5 4 4 5 6 8 7 4 5 4 2 1 2
-2 -3 -2 -2 -2 -2 -1 -1 -1 -0 -0 0 0 1 1 -1 3 6 5 5 5 4 -0 1 3 3 3 2 2 3 4 4 6 6 6 5 5 6 7 6 6 5 4 2 4 1 0
-2 -2 -2 -2 -2 -2 -2 -2 -1 -1 -0 0 0 0 0 1 1 3 3 4 2 0 2 4 4 4 3 1 2 3 5 4 6 8 9 8 7 6 7 6 5 2 1 2 4 -0 -1
-2 -2 -2 -2 -2 -2 -2 -2 -1 -1 -1 -0 -0 -0 -0 -0 1 2 2 2 3 2 1 3 3 4 4 1 3 4 4 6 5 4 4 5 4 4 4 4 3 -1 0 3 0 -0 -2
-2 -2 -2 -3 -3 -2 -2 -2 -2 -1 -1 -1 -1 -1 -1 -1 0 1 2 2 2 2 -2 2 1 2 1 1 2 3 3 3 4 4 4 2 3 2 3 3 2 -2 1 -0 -1 -3 -3
-3 -2 -2 -2 -2 -2 -2 -2 -2 -1 -1 -1 -1 -1 -1 -1 0 2 2 2 2 1 1 2 1 2 2 -0 0 1 3 3 3 3 4 2 2 1 1 -0 -2 -3 -4 -4 -4 -4 -5

GFSGBSN_850_temp_102.txt.gz
Temp
10 10 10 10 10 10 10 9 8 8 8 9 8 9 9 9 10 9 10 10 10 10 10 10 10 10 10 9 13 15 14 14 14 14 14 13 13 13 12 13 14 13 14 16 16 17 17
10 10 10 10 10 10 8 9 8 7 8 8 8 9 9 9 9 9 9 9 9 10 10 10 10 10 9 6 14 14 13 13 13 13 13 13 13 13 13 13 12 15 15 15 16 16 17
10 10 10 10 9 9 9 8 8 7 6 7 7 8 8 9 9 9 9 9 10 10 9 9 9 9 8 13 14 13 12 12 13 13 13 13 13 13 13 12 14 14 13 13 14 15 15
11 10 10 10 9 9 8 7 8 6 6 5 6 7 8 8 8 8 8 9 9 9 9 8 8 8 9 13 12 13 13 13 13 13 13 13 13 13 13 13 13 12 12 11 14 14 15
10 10 10 10 9 8 7 7 6 6 4 5 6 7 8 8 8 8 9 9 9 10 9 8 7 6 8 12 12 13 13 12 13 13 13 13 13 13 13 10 8 10 10 11 12 14 13
10 10 10 10 10 8 6 6 5 5 4 4 5 7 7 7 7 7 8 9 10 9 8 7 6 5 11 12 12 12 12 13 13 12 12 13 12 9 7 7 8 9 9 9 9 13 13
9 9 9 9 9 7 5 5 4 5 3 4 5 5 6 7 7 7 8 8 9 8 7 9 9 10 11 12 12 12 12 13 12 12 10 11 8 7 8 8 10 10 10 9 11 12 12
8 9 9 9 8 6 5 4 4 5 3 4 4 5 6 6 6 6 6 6 6 6 5 9 9 8 9 11 9 11 12 12 12 10 10 9 7 9 10 10 10 9 9 9 11 12 12
8 9 9 8 7 6 4 4 4 4 3 4 4 5 5 6 6 5 5 5 5 5 4 7 9 9 11 11 10 11 12 12 11 10 10 8 10 12 11 10 10 10 10 10 11 12 13
9 9 8 8 5 5 4 3 2 3 2 4 4 5 5 5 5 5 4 5 5 5 4 9 10 12 11 11 11 12 11 11 11 10 10 9 11 11 10 10 10 9 11 11 11 11 10
7 7 7 5 4 4 3 2 2 2 2 4 4 4 5 5 5 5 5 5 5 4 8 11 11 12 12 11 10 12 11 11 9 9 9 9 9 8 9 10 11 10 11 10 11 10 8
7 7 6 5 4 3 2 2 1 1 2 4 4 4 4 5 4 5 5 5 5 6 8 11 10 9 9 9 10 10 10 11 10 9 9 8 10 9 9 10 10 10 10 10 11 8 7
7 7 6 5 3 2 2 1 1 2 2 3 4 4 4 4 5 4 5 5 5 6 11 8 7 8 8 8 8 8 7 6 6 5 6 7 8 8 9 8 8 9 8 7 5 6 8
7 7 5 3 2 2 1 1 1 1 2 2 3 4 3 4 4 5 5 4 5 9 7 8 7 7 7 6 7 6 6 4 6 6 4 4 5 7 8 7 6 6 7 7 6 7 9
7 5 3 2 2 1 1 0 1 2 2 2 3 3 3 3 3 4 4 1 5 7 7 6 7 6 5 6 5 5 4 4 6 6 4 4 5 7 7 8 7 7 7 8 7 8 8
3 2 2 1 1 0 -0 -1 1 2 2 2 2 3 2 3 3 3 2 5 6 7 7 7 5 5 4 4 4 4 4 6 5 6 5 4 3 6 7 8 8 7 10 6 6 6 8
2 1 1 1 1 -0 -1 -1 0 2 2 1 2 2 2 2 3 4 1 4 6 7 7 6 5 5 5 4 4 4 4 5 5 6 5 5 3 5 5 7 7 7 6 7 7 7 8
0 0 0 -0 -1 -1 -1 -0 1 2 1 2 2 1 3 3 2 2 2 6 7 7 7 6 6 5 4 3 3 3 3 4 5 4 3 3 2 2 5 7 8 8 7 7 6 9 9
-0 -0 -0 -1 -1 -1 -1 0 1 1 1 2 3 2 2 3 -0 -0 5 6 7 5 5 4 4 4 4 3 2 2 4 5 5 4 3 3 2 2 4 7 7 6 6 7 7 6 8
-1 -1 -1 -1 -1 -1 -0 0 1 1 2 3 3 -1 2 2 3 2 3 4 4 5 5 4 4 4 3 2 3 1 2 4 5 4 5 2 2 3 3 6 7 6 5 6 8 7 6
-1 -1 -1 -2 -2 -1 -0 0 1 1 2 3 2 0 3 -0 1 1 1 3 3 3 4 3 3 3 2 1 2 2 2 1 2 4 4 2 3 3 3 4 5 5 5 5 6 5 6
-1 -1 -2 -2 -2 -1 -0 0 1 1 2 2 3 2 3 2 2 0 2 3 3 3 2 2 2 2 1 1 1 1 2 1 1 3 2 3 3 3 4 5 4 5 4 4 4 4 3
-1 -1 -2 -2 -2 -1 -1 0 1 1 1 2 2 3 4 2 1 -0 0 2 2 1 2 3 2 1 1 3 3 2 2 2 3 2 2 2 3 4 6 5 6 5 3 2 2 2 2
-2 -2 -2 -2 -2 -1 -0 0 0 1 2 2 2 3 3 0 1 2 4 4 3 2 -2 3 3 2 3 3 3 3 1 1 1 2 2 2 3 5 5 5 4 2 1 2 1 0 0
-2 -2 -2 -2 -2 -1 -1 -0 0 0 1 2 2 2 2 -1 2 4 4 3 3 3 -0 1 3 3 3 2 2 3 4 4 5 3 3 3 3 5 6 5 3 3 1 0 2 -1 -1
-2 -2 -2 -1 -2 -2 -1 -1 -0 0 0 2 2 2 2 0 0 2 2 3 1 -1 0 3 3 3 3 1 2 2 4 4 4 5 6 4 4 4 5 5 4 1 -0 1 2 -2 -2
-2 -2 -2 -2 -2 -2 -2 -1 -1 -0 0 1 0 1 2 1 1 2 1 1 2 1 -1 1 2 2 2 -1 0 2 4 4 3 4 3 3 3 3 4 3 2 -2 -1 2 0 -2 -3
-2 -2 -2 -2 -2 -2 -2 -1 -1 -0 -0 0 -0 0 1 1 1 1 2 2 2 1 -3 1 0 1 -0 -0 1 1 3 3 3 3 3 2 2 1 2 2 2 -3 -1 -0 -2 -4 -5
-2 -2 -2 -2 -2 -2 -2 -1 -1 -1 -1 -0 -0 -0 0 1 1 1 2 2 2 1 1 1 -0 1 1 -1 0 1 1 1 2 2 3 1 1 0 -0 -1 -3 -4 -5 -5 -4 -5 -5

GFSGBSN_850_temp_105.txt.gz
Temp
11 10 10 10 10 10 10 9 10 10 10 9 9 10 10 10 10 10 10 10 10 9 9 10 11 11 11 10 13 14 14 13 13 13 13 13 13 13 12 12 12 12 12 14 15 15 15
11 11 11 10 10 10 10 10 10 10 10 9 8 8 9 9 10 10 10 10 10 10 9 9 10 10 9 6 13 13 13 13 13 13 13 12 12 12 12 12 11 13 12 12 13 14 14
10 11 11 10 10 10 10 10 10 9 9 9 7 8 8 8 9 9 9 9 10 9 9 8 8 8 8 12 13 13 13 12 12 12 13 13 13 13 12 11 13 12 11 12 14 13 13
10 10 11 10 10 10 10 10 9 9 9 9 7 6 7 8 8 8 8 8 9 9 9 8 7 7 9 13 12 12 12 12 12 12 12 13 12 12 12 12 12 11 11 11 13 12 14
10 10 10 10 10 10 10 10 10 9 9 8 6 5 6 7 7 7 8 8 9 10 9 8 7 6 9 11 12 12 12 12 12 12 13 13 13 12 12 9 7 8 8 9 10 12 12
9 10 9 10 10 10 9 10 9 8 8 8 6 5 5 6 7 7 8 8 8 8 8 7 6 5 11 12 12 12 12 12 12 13 12 12 11 8 6 7 6 8 7 7 7 9 10
9 10 9 10 9 9 10 9 9 8 7 6 5 6 5 6 7 7 7 8 7 7 5 9 9 9 11 11 11 11 12 12 12 12 9 10 8 7 8 8 9 9 8 8 9 11 10
9 9 8 9 8 8 9 8 9 7 6 6 7 5 5 6 7 6 6 6 6 6 5 9 8 8 9 9 8 12 12 11 11 9 9 8 7 8 9 8 8 8 8 8 9 10 10
8 8 8 8 8 8 8 8 8 7 7 6 4 5 6 5 6 5 5 5 5 5 4 8 8 9 11 10 9 10 11 11 10 9 9 7 9 11 9 9 9 8 8 8 8 10 10
7 7 8 8 8 8 8 7 6 5 4 4 3 4 5 5 5 5 5 5 5 5 4 9 9 10 10 11 10 11 11 11 10 9 9 8 9 9 8 8 9 8 10 9 9 8 7
7 7 7 7 7 7 7 6 5 4 3 4 3 3 5 4 5 5 5 5 5 5 7 10 10 10 11 10 10 10 9 10 9 9 9 7 8 7 7 8 9 8 9 8 8 7 8
7 6 7 7 7 7 5 5 4 3 4 2 1 3 4 4 4 5 5 6 5 5 7 9 8 8 9 9 9 8 8 9 9 8 8 7 9 8 7 9 8 9 8 8 8 7 6
6 6 6 6 6 6 6 4 3 3 3 2 2 3 4 4 4 5 5 5 4 4 9 7 7 8 7 6 7 7 6 6 5 4 5 5 7 8 8 6 7 7 6 4 3 5 6
7 6 6 7 6 6 4 3 3 3 1 2 3 3 3 3 3 4 5 3 4 8 7 7 7 7 5 6 6 5 4 3 5 5 2 3 4 7 6 6 5 5 5 4 5 6 7
7 6 6 6 6 5 4 2 2 2 0 2 2 3 3 3 4 4 4 0 5 6 6 6 6 6 5 5 5 4 4 3 5 5 3 3 4 5 6 6 6 5 3 6 6 7 5
6 6 6 6 5 3 3 2 1 1 2 2 2 2 2 3 3 3 1 4 5 7 6 6 5 5 4 4 4 3 3 5 4 5 4 4 2 5 6 6 6 6 7 4 4 5 5
5 6 6 5 3 2 1 1 1 2 2 2 1 2 2 2 3 4 1 3 6 6 6 6 5 4 4 3 4 3 4 4 3 4 4 4 3 4 4 4 5 5 5 6 6 6 6
6 4 3 3 2 1 1 0 -0 2 1 1 2 0 2 2 2 2 1 5 7 6 6 6 5 5 4 3 3 3 3 4 5 4 3 3 0 2 4 6 7 6 6 5 6 6 8
3 2 2 1 0 0 0 0 1 2 1 2 2 1 1 2 -0 0 4 6 5 5 4 4 4 3 3 2 2 2 2 4 4 3 3 3 2 1 4 5 6 5 4 4 6 6 7
-0 -0 0 1 1 -0 0 2 2 1 2 3 3 -1 2 2 2 2 3 4 3 4 3 3 3 3 2 2 2 1 2 3 3 3 4 3 1 2 2 5 6 3 4 4 5 6 5
1 1 0 -0 -1 -1 0 1 1 1 2 2 3 0 2 -0 1 1 1 3 3 3 3 3 3 2 1 1 1 1 1 -0 1 3 3 2 2 2 3 4 4 3 4 4 5 5 4
-0 -1 -1 -1 -1 0 1 1 1 2 2 2 3 2 2 1 2 0 2 2 3 3 2 2 2 2 1 0 1 1 1 1 0 2 2 1 1 2 3 4 3 2 2 3 2 3 3
-1 -1 -1 -1 0 0 0 1 1 2 2 2 2 3 4 1 0 0 0 2 2 1 2 3 2 1 0 2 2 2 2 2 2 2 1 1 1 3 5 4 4 1 1 0 0 0 2
-2 -1 -1 -1 -1 -1 -0 0 1 1 2 4 3 3 3 -0 1 2 3 3 2 1 -1 3 2 2 3 3 2 2 1 1 2 2 1 1 2 3 5 4 3 1 0 0 -1 -1 -1
-1 -1 -2 -1 -1 -0 -0 0 1 2 3 3 3 3 3 -1 2 3 3 2 2 2 -0 1 3 3 2 2 2 2 2 3 3 2 3 2 2 4 5 4 2 2 0 -0 1 -1 -2
-1 -1 -1 -1 -1 -0 0 0 1 1 2 3 3 3 3 1 0 2 1 2 0 -1 0 2 3 3 2 0 2 2 4 3 4 4 4 4 2 4 4 5 4 0 -1 -1 1 -2 -3
-2 -1 -2 -2 -1 -0 -1 -0 0 1 2 2 2 3 3 1 1 2 1 1 1 -0 -1 -0 1 2 2 -1 2 2 3 3 2 2 3 3 3 2 4 3 1 -3 -3 -0 -0 -2 -5
-2 -2 -2 -2 -2 -1 -1 -1 -0 0 1 2 2 2 3 1 1 2 2 2 1 1 -3 1 -1 -0 -1 -0 1 1 1 2 2 2 2 1 1 1 2 3 2 -4 -2 -0 -3 -5 -6
-2 -2 -2 -2 -2 -1 -1 -1 -0 -0 1 1 1 2 2 3 1 2 2 2 2 1 1 -0 0 -0 0 -1 -0 0 0 -0 -0 -1 1 0 -1 -1 -1 -2 -4 -5 -5 -5 -4 -5 -7

GFSGBSN_850_temp_108.txt.gz
Temp
11 11 11 11 11 10 10 10 10 9 9 10 10 10 9 9 9 10 10 10 9 9 9 9 10 11 11 11 13 14 13 13 13 13 13 13 12 12 11 11 11 10 11 13 13 14 14
11 11 11 11 10 10 10 10 10 10 9 9 9 9 9 8 9 9 9 9 9 9 9 9 9 9 9 7 13 13 13 13 13 13 12 12 12 12 12 11 11 12 11 11 12 13 14
11 11 11 10 11 11 10 10 10 9 10 10 9 9 9 7 8 8 8 9 9 9 8 9 8 8 8 12 13 13 13 12 12 12 12 12 12 12 12 10 12 12 10 10 11 12 12
10 11 11 11 10 10 10 10 10 10 10 10 9 8 9 8 8 7 7 8 8 9 9 8 7 7 9 12 12 12 12 12 12 12 12 12 12 12 12 12 10 9 10 10 12 11 13
9 10 10 10 10 10 10 10 10 10 10 10 9 8 9 7 7 7 7 8 8 8 9 9 7 6 8 11 11 12 12 12 12 12 12 12 12 12 11 8 6 7 7 8 9 9 10
9 9 9 9 9 10 9 9 9 10 9 9 9 8 8 7 5 6 7 7 8 8 8 7 5 5 10 11 11 11 11 11 12 12 12 12 11 7 6 6 6 7 7 7 7 8 9
7 8 8 8 9 9 9 9 9 9 9 9 8 7 7 6 5 6 6 7 6 6 5 10 9 9 10 10 11 11 11 12 11 11 9 9 7 6 7 7 8 8 7 6 8 9 8
7 7 7 7 8 8 8 8 9 9 7 9 8 6 7 5 4 5 6 6 6 6 6 9 8 8 9 9 8 11 11 11 10 9 8 7 6 8 8 8 8 7 6 6 7 8 8
7 7 7 7 7 8 8 8 8 8 8 8 7 5 5 3 3 5 5 6 6 6 4 8 8 8 10 9 8 10 10 10 9 8 8 7 9 9 8 8 8 7 7 7 8 8 7
6 7 7 7 7 7 8 8 7 8 7 7 7 4 5 2 2 4 4 5 6 6 4 7 7 9 9 10 9 10 10 10 10 9 9 8 8 9 8 7 8 6 8 8 7 6 7
6 7 7 7 7 7 7 7 7 7 7 7 5 4 2 4 3 4 5 5 5 5 7 9 9 10 10 10 9 9 9 10 9 9 9 8 8 7 7 7 8 7 8 7 7 6 5
6 6 7 7 7 7 7 7 7 7 7 5 5 4 2 2 3 4 4 4 5 5 7 8 8 8 8 8 7 8 8 9 8 7 7 7 8 8 7 8 8 8 6 6 6 5 4
6 6 6 6 7 6 6 6 6 6 6 4 4 3 2 3 3 3 4 4 5 5 9 6 6 7 6 6 6 6 6 5 5 5 4 5 5 7 7 6 6 5 4 2 2 3 5
6 7 7 6 6 6 6 6 6 6 4 4 3 2 1 2 3 3 3 2 3 7 6 7 6 5 4 5 5 5 5 4 4 3 2 2 3 6 5 6 4 4 4 4 4 5 5
6 7 7 5 6 6 6 5 6 4 4 3 2 1 2 2 2 3 3 1 5 6 6 6 6 5 4 5 5 4 4 4 4 4 2 3 3 5 6 6 5 4 3 5 5 5 4
7 7 5 5 6 6 6 5 5 4 3 3 0 1 1 1 2 3 1 4 4 6 6 6 5 5 3 4 4 4 3 4 4 5 3 3 2 5 5 6 5 4 6 3 4 2 4
8 6 5 5 6 6 6 5 5 3 2 1 1 2 1 2 2 3 -1 2 5 6 6 6 5 4 4 3 3 3 3 4 4 4 4 3 2 3 4 4 3 4 4 4 4 4 4
5 5 5 6 5 5 5 5 3 2 1 0 2 -2 1 2 1 1 0 4 6 6 6 5 4 4 4 3 2 3 3 4 4 4 3 3 -0 2 3 5 5 5 4 4 2 6 6
5 5 5 5 5 5 4 3 2 1 -0 1 1 0 0 1 0 -0 3 5 5 5 4 4 3 3 3 2 2 2 2 4 3 3 3 2 1 0 4 3 5 5 4 4 4 3 6
5 5 5 4 3 3 2 2 1 0 0 2 2 -1 -0 1 2 2 3 4 3 4 3 3 3 3 2 1 2 1 2 3 3 2 3 3 1 1 2 5 5 3 4 3 3 4 4
5 5 3 2 2 1 1 0 -1 -1 0 3 3 -1 2 0 0 1 2 3 3 3 3 3 2 2 2 1 1 1 1 -1 1 3 2 1 1 1 2 3 3 2 2 2 4 5 4
0 1 -0 0 -0 0 -0 -2 -1 -0 2 2 2 1 1 0 2 1 3 2 3 2 2 2 2 1 1 0 1 0 1 0 -0 1 1 2 1 1 1 3 3 1 1 0 0 1 0
-0 -0 -0 0 0 -1 -2 -1 -0 1 1 2 3 3 5 1 0 1 1 2 2 0 2 3 2 1 0 1 2 2 2 2 2 2 1 1 1 2 3 2 2 2 0 -0 -1 -1 1
-0 -0 -1 -1 -1 -1 -0 -0 1 1 2 3 4 4 2 -0 1 2 2 3 1 1 -1 2 2 1 2 2 2 2 1 1 1 2 1 1 1 2 3 3 3 0 -0 -0 -1 -2 -1
-1 -2 -2 -0 -0 0 1 1 1 1 3 3 4 4 3 -2 2 3 2 2 1 1 -0 1 2 2 2 1 2 2 2 2 2 2 2 1 2 2 4 3 1 1 -1 -1 0 -2 -3
-2 -2 -0 -0 -0 0 0 1 2 2 3 3 4 4 4 1 1 3 1 2 0 -1 0 1 2 2 2 -1 1 1 2 2 4 4 2 2 2 3 4 5 3 -0 -2 -2 -1 -3 -4
-2 -1 -1 -0 -0 -0 0 1 1 2 2 3 3 4 4 1 1 2 1 1 1 -0 -1 -1 1 1 1 -2 -1 1 2 3 2 2 2 2 2 2 4 3 0 -3 -4 -2 0 -2 -5
-2 -1 -1 -1 -1 -1 -0 1 1 2 2 3 3 3 4 1 1 2 2 2 1 0 -3 0 -1 -1 -1 -1 1 0 0 -0 2 1 1 1 1 1 2 3 2 -4 -2 -0 -4 -6 -7
-2 -2 -2 -2 -1 -1 -0 0 1 1 2 2 3 3 4 3 1 2 2 2 2 2 1 -1 -0 -1 -1 -1 0 -1 1 1 -1 -1 0 0 -1 -1 -2 -3 -5 -6 -5 -5 -4 -6 -7

GFSGBSN_850_temp_114.txt.gz
Temp
10 11 11 11 11 11 11 11 11 11 10 10 10 10 10 9 10 10 10 10 9 9 9 10 10 11 11 11 13 13 13 13 13 13 13 14 15 16 17 17 16 15 17 16 16 16 16
10 10 10 11 10 10 10 10 10 10 10 10 10 10 9 9 9 10 10 9 9 8 9 9 10 9 9 12 13 13 13 12 12 12 13 13 15 15 15 16 16 15 15 15 15 16 16
11 10 10 10 10 10 10 10 11 10 10 10 9 10 9 10 9 9 9 9 9 9 9 9 9 9 7 11 13 13 13 12 11 11 13 12 13 14 14 16 14 14 14 16 17 17 17
10 10 11 10 10 10 10 10 10 10 10 10 10 10 10 9 9 9 9 9 9 9 9 9 9 8 9 12 12 12 11 11 12 11 11 12 12 13 14 13 14 15 15 16 17 15 16
9 9 10 10 10 10 10 9 10 10 10 10 10 10 9 9 9 8 8 8 8 8 8 9 8 7 10 11 11 11 11 11 11 11 11 11 12 13 13 15 16 15 16 17 16 16 15
8 8 8 9 9 8 9 9 9 9 10 9 9 9 9 9 8 8 8 7 8 8 8 8 6 6 10 12 10 11 11 10 11 12 11 12 13 14 15 15 16 17 15 16 15 16 15
7 6 7 8 8 8 7 7 8 8 9 9 9 8 8 8 8 8 7 7 6 6 6 10 10 10 10 10 11 11 10 11 12 12 14 13 14 14 16 16 15 14 14 14 16 16 14
7 6 6 6 7 8 7 7 7 8 8 8 9 8 7 8 7 7 6 7 7 6 8 8 8 8 9 10 11 11 11 12 12 14 14 13 13 15 15 14 13 13 13 14 15 14 14
5 6 6 6 6 6 7 7 7 7 7 7 8 7 7 7 7 6 6 6 6 6 8 10 9 8 9 8 11 12 11 12 13 14 14 14 15 13 13 13 12 13 13 13 13 14 14
3 4 5 5 6 6 6 7 7 7 7 7 8 6 7 7 6 5 5 5 5 5 5 11 10 9 8 9 11 9 10 12 13 12 13 13 14 12 12 12 13 12 14 12 12 12 13
3 3 4 5 5 6 6 7 7 7 7 7 6 7 7 6 6 5 5 5 5 6 8 11 10 9 9 11 11 10 9 10 12 12 12 12 11 11 11 12 12 12 12 11 11 11 12
2 2 3 4 5 5 5 6 6 7 7 6 6 6 6 6 5 5 4 3 5 6 9 10 10 10 11 10 10 10 10 10 10 12 12 12 10 11 12 11 11 11 10 11 11 11 10
1 2 2 3 4 4 5 5 6 6 7 6 5 6 6 6 5 4 4 3 5 9 11 10 10 11 11 10 10 10 11 11 11 10 11 11 11 11 10 10 10 10 10 10 11 10 11
0 1 1 2 3 3 5 5 5 6 6 6 6 6 5 5 3 3 3 3 5 10 11 9 10 10 10 9 9 9 9 10 9 10 10 11 10 9 9 10 10 10 10 10 9 11 13
-0 0 1 2 2 3 4 5 5 6 6 6 6 4 3 3 2 2 2 3 10 10 12 10 9 10 9 8 9 8 8 10 10 9 9 9 9 9 8 9 9 9 7 10 8 9 9
-0 -0 0 1 2 2 3 4 4 5 5 6 5 2 1 1 0 1 2 6 9 9 9 11 10 11 10 9 8 8 9 9 8 8 8 7 6 8 9 8 9 8 9 6 8 6 8
-0 0 0 0 1 2 2 3 3 4 5 5 4 0 -1 -0 -0 0 3 5 8 8 8 9 10 8 9 8 8 8 9 7 7 7 7 7 6 7 7 7 8 7 7 7 8 8 8
-0 0 0 0 1 1 2 3 3 4 4 4 1 0 -1 -0 1 1 4 7 8 8 7 8 9 9 9 8 7 7 7 7 7 6 6 7 5 6 7 8 8 8 8 8 6 7 8
-1 -1 -0 0 0 2 2 3 3 3 5 3 -1 -2 -1 -1 2 3 6 7 8 8 8 8 8 8 7 7 6 7 6 5 5 6 6 6 6 5 6 5 7 5 7 8 6 5 6
-0 -0 0 0 1 2 2 3 3 3 4 4 -0 0 -1 -1 1 5 6 7 6 7 7 7 6 6 6 6 6 5 5 5 4 5 4 5 5 4 8 8 8 6 5 5 5 5 8
-0 0 1 1 1 2 2 2 3 3 4 4 0 2 2 1 2 5 7 7 7 6 6 5 5 6 7 5 5 4 5 4 4 3 5 4 4 4 4 6 6 5 5 5 3 4 4
-0 -1 -0 0 1 3 2 2 3 3 3 4 0 3 3 4 4 4 6 6 6 5 5 5 6 6 6 5 6 5 5 4 4 5 5 5 3 3 3 6 5 3 2 3 1 1 1
0 0 -0 0 1 3 3 3 3 3 3 1 1 3 5 4 5 5 6 6 6 4 5 6 6 5 5 6 5 5 5 5 5 4 4 3 3 3 5 5 4 3 2 1 0 1 2
3 3 3 3 4 3 3 3 2 2 2 3 3 4 5 3 5 6 6 6 6 6 2 4 4 5 4 3 3 3 4 4 4 4 4 3 2 4 5 4 5 1 0 1 1 -0 1
6 5 3 3 2 3 4 1 0 1 1 2 3 4 3 3 5 5 6 6 6 3 3 3 3 4 3 4 4 4 3 2 2 3 4 1 3 4 5 6 3 2 1 2 2 -0 0
6 4 4 3 3 1 -0 -0 -0 -0 0 1 3 4 3 2 3 5 6 5 6 5 4 2 1 1 2 5 4 5 5 6 5 3 2 2 2 4 6 6 6 4 2 1 2 2 -1
1 2 1 0 -0 -1 -1 -0 -0 -0 -0 3 4 5 4 2 3 5 6 6 5 6 6 3 2 2 3 5 4 6 6 6 6 6 4 4 4 4 6 6 4 1 -0 0 2 1 -2
-1 -1 -1 -1 -1 -1 -1 -1 0 2 3 4 4 4 6 2 0 2 3 3 3 5 5 3 4 3 4 5 7 6 4 4 5 4 4 4 4 5 5 6 5 -1 0 2 -2 -3 -4
-1 -1 -1 -1 -0 -0 -0 1 3 3 4 5 5 5 5 3 -0 2 3 3 3 3 3 2 4 4 5 6 6 5 3 3 4 4 3 3 2 4 2 2 -2 -3 -3 -3 -3 -4 -5